Flag for Germany Weather past 2 weeks in Brühl (Rhineland), North Rhine-Westphalia, Germany

Now
54 °F

Partly sunny.


Feels Like: 54 °F
Forecast: 49 / 65 °F
Wind: 2 mph from South

Location: Noervenich

Current Time: Sep 2, 2015 at 9:34:07 AM

Latest Report: Sep 2, 2015 at 9:00 AM


Visibility: 19 mi

Pressure: 30.06 "Hg

Humidity: 91%

Dew point: 52 °F

Location of Brühl (Rhineland)Location

Historic Weather in Brühl (Rhineland) — Graph

°F

Brühl (Rhineland) temperature yesterday

Maximum temperature yesterday: 69 °F (at 1:00 AM)
Minimum temperature yesterday: 59 °F (at 6:00 PM)
Average temperature yesterday: 62 °F

Past Weeks' High & Low Weather Summary

 TemperatureHumidityPressure
High91 °F (Aug 30, 3:00 PM)99% (Aug 28, 7:00 AM)30.25 "Hg (Aug 28, 7:00 AM)
Low49 °F (Aug 19, 7:00 AM)30% (Aug 31, 4:00 PM)29.54 "Hg (Aug 24, 4:00 PM)
Average66 °F72%29.97 "Hg
* Reported Aug 18 7:00 AM — Sep 2 7:00 AM, Brühl (Rhineland), Weather by CustomWeather, © 2015

Note: Actual official high and low records may vary slightly from our data, if they occured in-between our weather recording intervals... More about our weather records

Advertising

Brühl (Rhineland) weather history for previous 24 hours

 ConditionsComfort  
Time TempWeatherWind HumidityBarometerVisibility
7:00 AM
Wed, Sep 2
53 °FScattered clouds.2 mph94%30.06 "Hg12 mi
4:00 AM53 °FPassing clouds.2 mph94%30.08 "Hg16 mi
3:00 AM52 °FPassing clouds.2 mph94%30.08 "Hg16 mi
2:00 AM53 °FPassing clouds.2 mph95%30.08 "Hg16 mi
1:00 AM54 °FPassing clouds.1 mph88%30.08 "Hg16 mi
10:00 PM
Tue, Sep 1
59 °FOvercast.2 mph90%30.04 "Hg16 mi
9:00 PM60 °FSprinkles. Overcast.2 mph89%30.03 "Hg12 mi
8:00 PM61 °FPassing clouds.2 mph86%30.01 "Hg2 mi
7:00 PM61 °FPartly sunny.2 mph84%30.00 "Hg12 mi
6:00 PM59 °FSprinkles. Overcast.5 mph91%29.98 "Hg11 mi
4:00 PM63 °FOvercast.5 mph83%29.95 "Hg16 mi
3:00 PM61 °FLow clouds.5 mph90%29.94 "Hg6 mi
2:00 PM60 °FLight rain. Low clouds.5 mph91%29.92 "Hg4 mi
1:00 PM60 °FRain. Low clouds.3 mph96%29.90 "Hg6 mi
12:00 PM60 °FRain. Low clouds.3 mph96%29.89 "Hg5 mi
10:00 AM60 °FRain. Low clouds.3 mph96%29.86 "Hg4 mi
9:00 AM61 °FRain. Low clouds.3 mph95%29.82 "Hg3 mi
Weather by CustomWeather, © 2015

See weather overviewHow to use our weather pages